FW2486 Weather Reports


time (UTC)temp
C
wind
direction
speed
KPH
gust
KPH
rain 1hr
cm
rain 24hr
cm
rain mn
cm
humidity
%
barometer
mb
20260506000035 24 297 8.0 9.7 0.00 0.00 0.00 51 1015.1
20260505234608 24 320 9.7 16.1 0.00 0.00 0.00 51 1015.2
20260505231536 24 316 9.7 19.3 0.00 0.00 0.00 51 1015.1
20260505230147 24 300 8.0 17.7 0.00 0.00 0.00 50 1015.3
20260505224607 24 319 8.0 14.5 0.00 0.00 0.00 50 1015.3
20260505223029 25 292 9.7 22.5 0.00 0.00 0.00 48 1015.5
20260505221606 25 271 8.0 19.3 0.00 0.00 0.00 48 1015.6
20260505220034 25 216 9.7 19.3 0.00 0.00 0.00 48 1015.7
20260505214534 25 202 9.7 17.7 0.00 0.00 0.00 49 1015.8
20260505213143 24 211 9.7 22.5 0.00 0.00 0.00 49 1015.9
20260505210030 23 212 9.7 20.9 0.00 0.00 0.00 50 1016.2
20260505204531 23 204 9.7 24.1 0.00 0.00 0.00 50 1016.2
20260505203037 23 214 9.7 20.9 0.00 0.00 0.00 51 1016.4
20260505201610 22 211 11.3 20.9 0.00 0.00 0.00 52 1016.5
20260505200041 22 204 11.3 33.8 0.00 0.00 0.00 53 1016.5
20260505194535 21 210 12.9 29.0 0.00 0.00 0.00 55 1016.6
20260505191642 21 218 9.7 16.1 0.00 0.00 0.00 56 1016.8
20260505190106 20 209 11.3 24.1 0.00 0.00 0.00 56 1016.9
20260505184535 20 207 11.3 24.1 0.00 0.00 0.00 58 1016.9
20260505183036 19 205 9.7 22.5 0.00 0.00 0.00 59 1017.0
20260505181611 19 204 12.9 25.7 0.00 0.00 0.00 59 1017.0
20260505174643 18 202 12.9 29.0 0.00 0.00 0.00 61 1017.1
20260505170106 17 206 14.5 25.7 0.00 0.00 0.00 63 1017.0
20260505164532 17 200 12.9 29.0 0.00 0.00 0.00 63 1017.0
20260505163149 17 205 12.9 33.8 0.00 0.00 0.00 62 1016.9
20260505161536 17 198 11.3 27.4 0.00 0.00 0.00 62 1016.9
20260505153028 16 200 11.3 29.0 0.00 0.00 0.00 63 1016.9
20260505124535 13 157 8.0 19.3 0.00 0.00 0.00 77 1016.2
20260505123032 13 175 8.0 17.7 0.00 0.00 0.00 77 1016.2
20260505120031 13 166 8.0 29.0 0.00 0.00 0.00 76 1016.1
20260505114532 14 184 8.0 20.9 0.00 0.00 0.00 75 1016.0
20260505113037 14 174 11.3 40.2 0.00 0.00 0.00 75 1015.9
20260505111531 14 193 19.3 33.8 0.00 0.00 0.00 75 1015.9
20260505101534 15 182 11.3 33.8 0.00 0.00 0.00 74 1015.4
20260505100045 15 178 12.9 35.4 0.00 0.00 0.00 73 1015.4
20260505094535 15 196 12.9 29.0 0.00 0.00 0.00 73 1015.3
20260505093037 15 191 12.9 37.0 0.00 0.00 0.00 73 1015.2
20260505091535 16 181 11.3 33.8 0.00 0.00 0.00 73 1015.1
20260505090030 16 183 9.7 30.6 0.00 0.00 0.00 72 1015.1
20260505084606 -17 0 0.0 0.0 0.00 0.00 0.00 100
20260505083035 16 195 9.7 29.0 0.00 0.00 0.00 72 1014.8
20260505080036 16 181 8.0 20.9 0.00 0.00 0.00 72 1014.8
20260505074535 16 169 9.7 19.3 0.00 0.00 0.00 72 1014.8
20260505073036 17 181 9.7 27.4 0.00 0.00 0.00 72 1014.7
20260505071608 16 175 8.0 19.3 0.00 0.00 0.00 72 1014.6
20260505070031 16 156 8.0 17.7 0.00 0.00 0.00 71 1014.5
20260505064534 17 142 6.4 14.5 0.00 0.00 0.00 71 1014.4
20260505063033 -17 0 0.0 0.0 0.00 0.00 0.00 100
20260505061535 -17 0 0.0 0.0 0.00 0.00 0.00 100
20260505060036 17 159 4.8 16.1 0.00 0.00 0.00 67 1014.6
20260505054607 17 168 6.4 17.7 0.00 0.00 0.00 66 1014.5
20260505051537 17 187 11.3 24.1 0.00 0.00 0.00 64 1014.4
20260505041536 18 173 9.7 30.6 0.00 0.00 0.00 58 1013.9
20260505040048 19 178 6.4 9.7 0.00 0.00 0.00 54 1013.6
20260505034534 19 192 11.3 32.2 0.00 0.00 0.00 52 1013.3
20260505033030 20 197 12.9 29.0 0.00 0.00 0.00 50 1013.1
20260505031533 20 194 9.7 17.7 0.00 0.00 0.00 48 1012.9
20260505030037 20 192 6.4 19.3 0.00 0.00 0.00 47 1012.7
20260505024533 21 185 9.7 24.1 0.00 0.00 0.00 46 1012.5
20260505023030 22 187 8.0 19.3 0.00 0.00 0.00 46 1012.4
20260505021532 22 205 9.7 24.1 0.00 0.00 0.00 45 1012.4
20260505020036 23 197 12.9 27.4 0.00 0.00 0.00 43 1012.3
20260505014537 23 216 8.0 22.5 0.00 0.00 0.00 42 1012.2
20260505013033 24 207 8.0 25.7 0.00 0.00 0.00 41 1012.1
20260505011533 24 221 8.0 24.1 0.00 0.00 0.00 40 1012.1
20260505010037 25 225 11.3 22.5 0.00 0.00 0.00 38 1012.1
20260505004534 25 215 9.7 17.7 0.00 0.00 0.00 37 1012.1
20260505003032 26 224 9.7 24.1 0.00 0.00 0.00 35 1012.0